Weather Roundup
Issued by NWS

Home | Current Version | Previous Version | Graphics & Text | Print | Product List | Glossary Off
Versions: 1 2 3 4 5 6 7 8 9 10 11 12 13 14 15 16 17 18 19 20 21 22 23 24 25 26 27 28 29 30 31 32 33 34 35 36 37 38 39 40 41 42 43 44 45 46 47 48 49 50

000
NZUS93 KARX 252310
HRRWXR

CURRENT HOURLY OBSERVATIONS ACROSS
MUCH OF THE UPPER MISSISSIPPI VALLEY
NATIONAL WEATHER SERVICE LA CROSSE WI
600 PM CDT SAT OCT 25 2014


...SOUTHEAST MINNESOTA...


CITY           SKY/WX    TMP DP  RH WIND       PRES   REMARKS
ROCHESTER      CLEAR     58  29  33 NW10G18   30.05S
ROCHESTER/MAYO FAIR      60  26  26 W16G22    30.03S
WINONA         CLEAR     61  30  31 NW8       30.01S
AUSTIN         CLEAR     57  30  35 NW9       30.05S
ALBERT LEA     CLEAR     61  28  29 NW7       30.06S
DODGE CENTER   CLEAR     57  28  33 NW10      30.05R
PRESTON        CLEAR     56  29  35 NW12      30.04S
OWATONNA       CLEAR     59  27  29 NW8       30.06R
FARIBAULT      CLEAR     61  25  25 W10G18    30.06S
$$

...ELSEWHERE IN MINNESOTA...


CITY           SKY/WX    TMP DP  RH WIND       PRES   REMARKS
MINNEAPOLIS    CLEAR     59  24  26 NW14      30.04R
INTNL FALLS    CLEAR     50  28  42 W12G22    29.94R
DULUTH         CLEAR     53  25  33 W17G25    29.95R
RED WING       CLEAR     61  25  25 NW7       30.01S
REDWOOD FALLS  CLEAR     61  27  27 NW8       30.09R
MANKATO        CLEAR     61  28  29 NW12      30.07S
WORTHINGTON    CLEAR     61  28  29 N6        30.10F
FAIRMONT       CLEAR     63  -8   6 NW10      30.08S
$$

...SOUTHWEST WISCONSIN...


CITY           SKY/WX    TMP DP  RH WIND       PRES   REMARKS
LA CROSSE      CLEAR     60  30  32 NW13      29.99R
PRAIRIE DU CHI CLEAR     62  27  26 W7        30.00S
BOSCOBEL       CLEAR     64  24  21 W9        29.99S
LONE ROCK      CLEAR     65  25  22 NW13      29.97R
PLATTEVILLE    CLEAR     61  29  30 W9        30.00S
FORT MC COY    CLEAR     59  24  25 W9        29.99R
VIROQUA        FAIR      56  27  32 NW6       30.00R
WIS DELLS      CLEAR     59  25  27 W10G18    29.95R
$$

...ELSEWHERE IN WISCONSIN...


CITY           SKY/WX    TMP DP  RH WIND       PRES   REMARKS
MILWAUKEE      CLEAR     65  24  21 NW10      29.89R
MADISON        CLEAR     62  25  24 NW9       29.94R
GREEN BAY      CLEAR     59  28  30 W10G23    29.85R
EAU CLAIRE     CLEAR     58  25  28 W13       29.97S
BLACK RVR FLS  FAIR      60  24  25 W10       29.97R
MEDFORD        CLEAR     54  27  34 W12       29.92R
WAUSAU         CLEAR     57  25  29 W15G24    29.89R
WIS RAPIDS     CLEAR     58  27  30 W10       29.94R
MARSHFIELD     CLEAR     56  28  34 W12G21    29.93R
RICE LAKE      CLEAR     56  24  28 W9        29.99S
$$

...NORTHEAST IOWA...


CITY           SKY/WX    TMP DP  RH WIND       PRES   REMARKS
DECORAH        CLEAR     61  28  29 NW7G14    30.02S
MASON CITY     CLEAR     58  34  40 NW10      30.07F
CHARLES CITY   CLEAR     61  30  31 NW9       30.06S
OELWEIN        CLEAR     61  34  36 NW9       30.05R
$$

...ELSEWHERE IN IOWA...


CITY           SKY/WX    TMP DP  RH WIND       PRES   REMARKS
DES MOINES     CLEAR     68  35  29 N6        30.06S
IOWA CITY      CLEAR     64  38  38 NW6       30.04F
FORT DODGE     CLEAR     64  36  34 N5        30.08S
$$

...NORTHERN ILLINOIS...


CITY           SKY/WX    TMP DP  RH WIND       PRES   REMARKS
CHICAGO-OHARE  CLEAR     66  26  22 W13       29.91S
CHICAGO-MIDWAY CLEAR     69  26  20 W12       29.91S
MOLINE         CLEAR     67  33  28 NW9       30.00R
ROCKFORD       CLEAR     65  28  24 NW15      29.96S
PEORIA         CLEAR     71  38  29 W3        30.00R
$$

NOTE: "FAIR" INDICATES FEW OR NO CLOUDS BELOW 12,000 FEET WITH NO
SIGNIFICANT WEATHER AND/OR OBSTRUCTIONS TO VISIBILITY. WIND
SPEEDS ARE IN MILES-PER-HOUR.



USA.gov is the U.S. government's official web portal to all federal, state and local government web resources and services.